Powrót do katalogu

BREEZE-M R/B

AktywnyMEO
NORAD 39376·ROCKET BODY·🇷🇺 Russia

Wystrzelony Nov 11, 2013 z Baikonur Cosmodrome

Loading…

Następne Przeloty (najbliższe 24 godziny)

TLE

ŚwieżeSource: Space-Track

Epoka: Sep 14, 2026, 09:35 UTC

1 39376U 13062B   26257.39974458 -.00000227  00000-0  00000-0 0  9993
2 39376   9.6045  50.7670 0233163 119.1511 243.2961  1.04210290 48879

Śledź BREEZE-M R/B w czasie rzeczywistym z AllMySat

Download on the App Store